Regional Weather Roundup
Issued by NWS

Home | Current Version | Previous Version | Text Only | Print | Product List | Glossary On
Versions: 1 2 3 4 5 6 7 8 9 10 11 12 13 14 15 16 17 18 19 20 21 22 23 24 25 26 27 28 29 30 31 32 33 34 35 36 37 38 39 40 41 42 43 44 45 46 47 48 49 50
000
ASUS43 KTOP 011059
RWRKS

WEATHER ROUNDUP FOR KANSAS
NATIONAL WEATHER SERVICE GOODLAND KS
600 AM CDT SUN MAY 01 2016

NOTE:  "FAIR" INDICATES FEW OR NO CLOUDS BELOW 12,000 FEET WITH NO
SIGNIFICANT WEATHER AND/OR OBSTRUCTIONS TO VISIBILITY.

KSZ001>006-013>018-027>032-041>047-011200-
NORTHWEST KANSAS

CITY           SKY/WX    TMP DP  RH WIND       PRES   REMARKS
GOODLAND       CLOUDY    35  33  92 N15G24    30.11R WCI  25
HAYS           CLOUDY    43  34  70 NW13      30.00R
HILL CITY      CLOUDY    40  37  89 NW14      30.04R WCI  32
RUSSELL        CLOUDY    42  40  92 NW15      29.96R
$$

KSZ061>065-074>080-084>089-011200-
SOUTHWEST KANSAS

CITY           SKY/WX    TMP DP  RH WIND       PRES   REMARKS
DODGE CITY     CLOUDY    39  33  79 NW18G28   30.04R WCI  30
ELKHART          N/A     41  29  62 NW15        N/A
GARDEN CITY    CLOUDY    39  33  79 NW22G28   30.07R WCI  29
GREAT BEND     CLOUDY    43  34  70 NW16      30.00R
LIBERAL        PTCLDY    41  32  70 NW20G26   30.11R
$$

KSZ066>073-081>083-090>101-011200-
SOUTHEAST KANSAS

CITY           SKY/WX    TMP DP  RH WIND       PRES   REMARKS
CHANUTE        PTCLDY    45  41  86 W6        29.94R
COFFEYVILLE    CLEAR     47  43  86 CALM      29.95R
HUTCHINSON     PTCLDY    43  39  86 NW13      29.97S
MEDICINE LODGE   N/A     43  38  82 NW9       30.02R
NEWTON         CLOUDY    43  36  75 NW8       29.97F
PARSONS        PTCLDY    43  42  97 CALM      29.95R
WICHITA INTL   MOCLDY    43  39  86 W8        29.98R
WICHITA JABRA  PTCLDY    42  39  89 W10       29.97R
WINFIELD       PTCLDY    42  38  85 W9        30.00R
$$

KSZ007>012-019>026-033>040-048>060-102>105-011200-
NORTHEAST KANSAS

CITY           SKY/WX    TMP DP  RH WIND       PRES   REMARKS
CONCORDIA      CLOUDY    43  41  93 W9        29.92R FOG
EMPORIA        CLEAR     44  42  93 W7        29.93R
LAWRENCE       CLEAR     46  43  89 W6        29.92R
MANHATTAN      CLOUDY    49  43  80 W8        29.93R
OLATHE IND     CLEAR     47  44  90 W3        29.91S
OLATHE EXE     PTCLDY    48  44  86 W3        29.91R
SALINA         PTCLDY    43  39  86 W8        29.97R
TOPEKA BILLARD MOCLDY    48  44  86 SW5       29.92R
TOPEKA FORBES  PTCLDY    47  43  86 W7        29.92R
$$




USA.gov is the U.S. government's official web portal to all federal, state and local government web resources and services.